Wind_Speed
16 15 15 16 16 16 16 16 17 17 17 18 18 18 18 18 18 18 18 18 18 17 16 15 14 14 14 14 14 14 15 15 16 16 16 16 15 15 15 15 16 16 16
15 15 15 15 15 16 16 15 16 16 16 16 16 16 17 17 18 18 19 19 19 19 19 18 17 17 16 16 16 16 16 17 17 17 17 17 17 16 16 16 16 17 17
16 16 16 16 17 17 17 17 17 16 16 16 16 16 16 16 16 16 17 18 19 20 20 20 19 18 17 17 17 17 18 18 18 19 19 18 18 17 17 17 17 17 17
17 16 16 17 17 17 17 17 17 17 16 16 16 16 16 16 16 17 17 17 18 18 18 19 19 18 18 17 18 18 18 19 19 19 19 19 18 18 18 18 18 18 18
17 16 16 16 17 16 16 16 16 16 16 16 16 16 16 17 17 18 18 18 18 18 17 18 18 18 18 18 18 19 19 19 20 20 20 20 19 19 19 19 18 18 19
17 17 17 17 17 17 17 16 16 17 18 18 18 18 18 18 19 19 19 19 19 18 18 18 18 19 19 19 19 19 20 20 21 21 21 21 21 20 20 20 19 19 20
18 19 19 20 20 20 20 19 19 19 19 20 20 20 20 19 20 20 20 20 19 18 18 18 18 19 19 19 20 20 21 21 21 22 22 22 22 22 21 21 21 21 22
21 22 23 23 23 23 23 22 21 21 21 21 21 21 20 19 19 20 19 19 19 19 18 19 19 19 20 20 21 21 21 22 22 23 23 24 24 24 24 24 24 24 24
25 26 26 26 26 26 25 24 23 22 22 21 21 21 21 20 19 19 19 19 19 19 19 19 19 20 20 21 21 22 22 22 23 23 24 25 26 26 27 27 28 28 28
28 29 29 29 29 28 28 26 25 24 23 23 22 22 22 21 20 20 20 19 19 19 19 19 19 19 19 20 21 21 21 22 22 23 24 26 27 28 29 30 30 31 31
30 31 31 31 30 30 29 28 27 26 25 25 24 23 23 22 21 21 21 20 20 20 20 20 20 19 20 20 20 20 20 21 21 22 23 25 26 28 29 30 30 31 31
31 31 30 30 30 30 30 29 29 28 27 26 25 25 24 23 23 22 22 22 22 22 21 21 21 21 21 20 20 20 21 21 22 23 24 25 26 27 28 28 29 29 30
30 29 29 29 30 30 31 31 30 29 29 28 27 27 26 25 24 23 23 23 23 23 23 23 23 23 23 22 22 22 22 22 23 24 25 26 26 27 27 28 29 29 29
28 28 29 29 30 31 32 32 31 31 30 30 29 28 27 26 26 25 25 25 25 25 25 25 25 25 25 24 24 23 23 24 24 25 25 26 27 27 28 28 29 30 30
29 29 29 30 30 32 32 33 33 32 32 32 31 30 29 28 28 27 27 27 27 27 27 27 27 27 27 26 26 25 25 25 25 26 26 27 27 28 28 29 29 30 30
30 30 30 30 31 32 32 33 33 33 34 34 33 32 32 31 30 29 29 29 29 29 29 29 29 29 29 28 27 27 26 26 26 26 26 27 27 28 28 28 28 28 29
32 32 32 32 33 33 33 34 34 34 35 35 35 34 34 33 32 32 31 31 31 31 31 31 30 30 30 29 29 28 28 27 27 27 27 27 27 27 28 28 28 28 28
34 34 35 35 35 35 35 36 36 37 36 36 36 36 36 35 35 35 34 34 33 33 33 32 32 31 31 31 30 30 29 29 28 27 27 27 27 27 27 27 28 28 28
35 36 36 37 37 37 38 39 39 39 39 39 39 39 38 38 38 38 38 37 37 36 35 34 34 33 33 32 32 31 31 30 29 28 28 28 28 28 28 28 28 28 29
37 37 37 38 38 39 40 41 41 41 42 42 42 42 42 42 42 42 41 41 40 39 38 37 37 36 35 34 34 33 33 32 31 30 29 29 29 30 30 30 30 30 30
39 39 39 39 39 41 42 42 43 44 45 45 45 46 46 46 46 45 44 43 43 42 42 41 40 39 37 36 36 36 35 33 32 32 31 31 32 32 33 33 33 33 32
41 41 41 41 42 43 43 44 45 46 47 48 49 49 49 49 49 48 48 47 47 46 46 45 44 42 41 40 39 38 37 36 35 35 34 35 35 35 35 36 36 36 36
43 43 43 43 44 44 45 46 47 48 49 50 50 50 50 51 52 52 51 51 51 50 49 48 48 46 44 43 42 41 40 38 38 38 37 38 38 38 38 38 38 39 39
44 44 44 44 44 45 46 46 47 48 49 50 51 52 53 54 55 55 55 54 54 54 52 51 50 50 48 47 45 44 44 43 42 40 40 41 41 41 41 41 41 42 42
44 44 44 44 44 45 46 47 48 49 49 50 52 53 54 55 56 57 57 57 57 56 55 54 53 52 51 50 49 48 47 46 45 44 43 44 43 43 44 44 45 45 46
42 42 42 43 43 44 45 46 47 49 50 51 52 54 55 56 57 58 59 60 60 59 58 57 56 55 54 53 52 51 50 50 48 47 46 46 46 46 46 47 47 48 49
Wind_Direction
251 255 257 259 259 259 260 261 262 264 268 270 272 273 272 273 273 274 274 275 276 278 281 282 283 283 281 279 278 278 278 278 279 280 281 282 282 282 282 283 285 286 287
250 252 255 257 258 260 261 262 262 263 265 268 270 272 272 272 273 273 274 274 275 276 278 280 281 282 282 281 280 280 280 280 281 282 282 282 281 281 281 283 285 287 290
251 254 257 260 262 263 265 267 268 267 266 267 269 271 272 273 274 275 276 276 275 275 276 278 279 280 281 281 281 282 282 282 283 283 284 283 283 282 283 286 289 292 294
254 258 260 263 264 265 266 269 272 272 271 271 272 273 275 275 276 278 279 279 279 279 278 278 279 279 280 280 280 281 282 282 283 284 284 285 284 284 286 289 292 295 298
253 256 260 262 264 265 267 269 272 276 277 278 278 280 282 282 282 282 282 282 282 282 282 281 280 281 281 280 280 280 281 282 283 283 284 284 284 284 285 288 291 295 299
248 253 257 261 265 267 270 271 273 277 279 281 283 285 286 286 286 286 285 284 284 283 283 282 282 283 283 282 282 282 282 281 281 281 281 281 281 281 281 285 289 294 298
245 251 256 261 265 268 271 273 274 276 279 282 284 286 287 287 287 287 286 284 283 283 283 284 284 285 285 285 284 284 283 282 280 279 278 278 277 277 278 282 286 292 296
245 250 255 260 264 267 270 272 274 275 277 279 282 284 285 285 285 286 285 282 281 282 283 284 285 286 286 285 285 285 285 284 282 280 278 276 275 275 277 280 284 289 293
247 251 255 258 262 265 267 270 271 272 274 276 279 281 282 282 282 283 283 280 279 280 282 284 284 285 284 284 284 285 285 285 284 282 279 277 276 276 277 279 283 286 289
248 252 255 258 260 262 264 266 268 270 271 272 275 277 278 278 279 280 281 280 279 280 281 283 284 285 285 285 285 285 286 286 286 284 282 280 279 279 280 282 284 286 288
248 251 254 257 258 260 263 265 266 268 269 270 272 274 274 274 275 276 278 279 279 279 280 282 283 284 284 284 284 284 284 285 286 286 285 284 284 284 285 286 287 288 288
248 251 254 256 258 259 262 264 265 267 268 269 270 271 272 273 273 274 276 277 277 277 278 280 281 283 283 283 283 283 283 284 285 286 287 287 287 288 289 289 290 290 291
249 252 254 256 257 259 261 262 264 265 267 268 268 269 270 271 272 273 274 275 275 275 275 276 279 280 281 282 282 282 283 284 285 287 288 288 288 289 290 290 290 291 292
249 251 253 255 257 259 261 262 263 264 265 266 266 267 269 270 272 272 273 273 273 272 272 273 275 277 278 280 281 281 282 284 285 287 288 289 290 291 291 291 291 292 293
249 251 253 255 258 260 261 263 264 264 264 264 265 266 268 269 270 271 272 272 271 271 271 272 272 273 275 276 278 279 281 283 284 286 288 289 291 292 293 293 293 293 294
248 251 253 255 258 261 263 264 265 265 265 266 266 266 267 268 269 270 271 271 271 271 271 271 271 272 273 274 275 277 279 281 283 285 287 289 290 291 293 294 295 295 295
249 252 255 257 259 261 263 264 265 265 266 266 267 267 267 268 268 269 270 270 270 270 270 270 271 271 271 272 273 275 276 278 280 283 286 287 289 291 293 295 296 296 296
249 253 256 258 260 262 263 264 265 265 266 267 267 268 268 268 268 268 268 268 268 268 269 270 270 270 270 271 272 273 274 275 277 281 283 285 288 290 292 294 296 297 297
250 253 257 260 262 264 265 266 266 267 268 268 268 268 268 268 267 266 266 266 267 267 268 269 269 269 269 270 271 271 272 273 276 278 281 284 286 289 291 293 294 296 296
251 254 258 261 263 265 266 267 268 268 269 269 268 267 266 265 265 264 264 265 266 267 267 267 267 268 269 270 270 270 271 272 275 277 279 281 284 287 289 291 292 293 294
255 257 259 262 263 265 266 267 268 268 268 268 268 267 266 265 264 264 264 264 265 266 266 266 266 267 268 269 270 270 271 273 274 275 277 280 282 285 287 289 290 291 291
259 261 263 264 265 266 266 267 268 268 269 270 270 270 269 268 267 266 265 264 263 264 264 265 265 266 266 268 269 270 272 273 274 275 277 279 281 283 285 287 288 288 289
263 265 266 267 268 268 268 268 268 269 269 270 270 270 270 268 267 265 264 263 262 263 263 264 265 265 266 267 268 270 272 272 273 275 277 279 280 282 283 285 286 286 287
266 267 268 269 270 270 270 270 269 269 269 269 268 267 266 266 266 265 264 263 262 262 262 263 263 264 265 266 267 269 270 271 273 274 276 277 279 280 282 283 284 285 285
267 268 270 271 271 271 271 271 271 270 269 268 267 266 266 265 265 264 263 262 261 260 260 260 261 262 264 265 266 268 270 272 272 273 274 275 276 278 280 282 283 284 284
267 269 271 272 273 274 274 273 273 272 271 269 268 267 265 264 263 262 261 260 260 259 258 258 258 259 261 263 265 267 269 271 272 272 274 274 276 278 280 281 283 283 284
Height
5882 5883 5884 5884 5885 5886 5886 5886 5887 5887 5887 5886 5886 5886 5885 5885 5885 5884 5884 5883 5882 5882 5881 5881 5881 5880 5880 5879 5879 5879 5878 5878 5877 5876 5876 5875 5874 5874 5873 5873 5872 5871 5870
5880 5881 5881 5882 5883 5883 5884 5884 5885 5885 5885 5885 5884 5884 5883 5883 5882 5882 5881 5881 5880 5879 5879 5878 5878 5878 5878 5877 5877 5876 5876 5875 5875 5874 5874 5873 5872 5872 5871 5870 5870 5869 5868
5877 5878 5879 5880 5880 5881 5882 5882 5882 5883 5883 5882 5882 5882 5881 5881 5880 5880 5879 5878 5878 5877 5876 5876 5875 5875 5875 5875 5874 5874 5873 5873 5872 5872 5871 5870 5870 5869 5868 5868 5867 5866 5866
5874 5875 5876 5877 5878 5878 5879 5879 5880 5880 5880 5880 5880 5879 5879 5878 5878 5877 5877 5876 5875 5874 5873 5873 5873 5872 5872 5872 5871 5871 5870 5870 5869 5869 5868 5868 5867 5867 5866 5865 5865 5864 5863
5871 5872 5874 5874 5875 5876 5876 5877 5877 5877 5877 5877 5877 5877 5876 5876 5875 5875 5874 5873 5873 5872 5871 5870 5870 5869 5869 5868 5868 5868 5867 5867 5866 5866 5865 5864 5864 5864 5863 5863 5862 5861 5860
5868 5869 5870 5871 5872 5872 5873 5873 5874 5874 5874 5874 5874 5874 5873 5873 5872 5872 5871 5870 5870 5869 5868 5868 5867 5867 5866 5865 5865 5864 5864 5863 5863 5862 5862 5861 5861 5860 5860 5859 5858 5858 5857
5865 5866 5867 5868 5868 5869 5869 5870 5870 5871 5871 5871 5871 5870 5870 5870 5869 5868 5868 5867 5866 5866 5865 5865 5864 5863 5863 5862 5862 5861 5860 5860 5859 5859 5858 5858 5857 5857 5856 5856 5855 5854 5853
5861 5862 5863 5864 5864 5865 5866 5866 5866 5867 5867 5867 5867 5867 5867 5866 5866 5865 5864 5864 5863 5862 5862 5861 5861 5860 5859 5859 5858 5857 5857 5856 5856 5855 5854 5854 5853 5853 5852 5852 5851 5850 5849
5857 5858 5858 5859 5860 5861 5861 5862 5862 5862 5863 5863 5863 5863 5863 5863 5862 5861 5861 5860 5860 5859 5858 5858 5857 5857 5856 5855 5855 5854 5853 5852 5852 5851 5850 5850 5849 5849 5848 5848 5847 5846 5845
5852 5853 5853 5854 5855 5856 5857 5857 5857 5858 5858 5858 5858 5858 5858 5858 5858 5857 5857 5856 5856 5855 5855 5854 5854 5853 5852 5852 5851 5850 5849 5849 5848 5847 5846 5846 5845 5844 5843 5843 5842 5841 5839
5847 5848 5849 5850 5850 5851 5852 5852 5853 5853 5853 5853 5854 5854 5854 5854 5854 5853 5853 5852 5852 5851 5851 5850 5850 5849 5849 5848 5847 5846 5845 5844 5844 5843 5842 5841 5841 5840 5838 5837 5836 5835 5834
5842 5843 5845 5845 5846 5847 5847 5847 5848 5848 5848 5848 5849 5849 5849 5849 5849 5849 5849 5848 5848 5847 5847 5846 5846 5845 5844 5844 5843 5842 5841 5840 5840 5839 5838 5837 5836 5835 5833 5832 5831 5829 5828
5837 5839 5840 5841 5841 5842 5842 5843 5843 5843 5843 5844 5844 5844 5844 5844 5844 5844 5844 5843 5843 5842 5842 5842 5841 5840 5840 5839 5839 5838 5837 5836 5835 5834 5833 5832 5831 5830 5828 5827 5826 5824 5823
5833 5834 5835 5836 5836 5837 5837 5838 5838 5838 5838 5838 5838 5839 5839 5839 5839 5839 5839 5838 5838 5837 5837 5837 5836 5835 5835 5834 5834 5833 5832 5832 5831 5830 5829 5827 5826 5825 5823 5822 5821 5819 5818
5827 5828 5829 5830 5831 5831 5832 5832 5833 5833 5833 5833 5833 5833 5834 5834 5834 5834 5834 5833 5833 5832 5832 5831 5831 5830 5830 5829 5829 5828 5827 5827 5826 5825 5824 5822 5821 5820 5818 5817 5815 5814 5812
5821 5822 5824 5825 5825 5826 5826 5827 5827 5827 5827 5827 5827 5828 5828 5828 5828 5828 5828 5828 5827 5826 5826 5826 5825 5825 5824 5824 5823 5823 5822 5822 5821 5819 5818 5817 5816 5814 5813 5811 5809 5808 5806
5815 5816 5818 5818 5819 5820 5820 5821 5821 5821 5821 5821 5821 5822 5822 5822 5822 5822 5822 5822 5821 5820 5820 5819 5819 5818 5818 5818 5817 5817 5816 5816 5815 5814 5812 5811 5810 5809 5807 5805 5804 5802 5800
5809 5811 5811 5812 5813 5814 5814 5814 5814 5814 5814 5815 5815 5815 5815 5816 5816 5815 5815 5815 5814 5814 5813 5813 5812 5812 5811 5811 5811 5811 5810 5809 5809 5808 5806 5805 5804 5803 5801 5800 5798 5796 5795
5804 5805 5806 5806 5807 5807 5807 5808 5808 5808 5808 5808 5808 5808 5808 5808 5808 5808 5807 5807 5807 5807 5806 5806 5805 5805 5804 5804 5804 5804 5803 5803 5802 5801 5800 5799 5798 5796 5795 5793 5792 5790 5789
5797 5799 5800 5800 5801 5800 5800 5800 5800 5800 5800 5800 5800 5800 5800 5800 5799 5799 5799 5799 5799 5799 5799 5798 5798 5797 5797 5797 5797 5796 5796 5796 5795 5794 5793 5792 5791 5790 5788 5787 5785 5783 5782
5789 5791 5792 5793 5793 5793 5793 5793 5792 5792 5792 5791 5791 5791 5790 5790 5790 5790 5791 5791 5790 5790 5790 5789 5789 5789 5789 5789 5789 5788 5788 5788 5788 5787 5786 5785 5784 5782 5781 5779 5778 5776 5775
5781 5783 5784 5784 5784 5784 5784 5784 5784 5783 5783 5782 5782 5781 5781 5781 5781 5781 5781 5781 5781 5781 5780 5780 5780 5780 5781 5781 5780 5780 5780 5781 5780 5779 5778 5777 5776 5774 5773 5771 5770 5768 5767
5772 5773 5774 5775 5775 5775 5775 5774 5774 5773 5773 5773 5772 5771 5771 5770 5769 5770 5770 5770 5770 5770 5770 5770 5771 5771 5771 5771 5771 5771 5772 5772 5771 5771 5770 5768 5767 5766 5764 5763 5761 5759 5758
5763 5763 5764 5764 5764 5764 5764 5763 5763 5763 5763 5762 5760 5760 5758 5757 5757 5757 5758 5758 5758 5759 5759 5760 5760 5760 5760 5761 5761 5761 5762 5762 5762 5761 5760 5759 5758 5756 5755 5753 5751 5750 5748
5753 5754 5754 5753 5753 5753 5752 5752 5751 5751 5751 5750 5748 5747 5746 5745 5745 5745 5745 5745 5745 5746 5747 5748 5748 5749 5749 5750 5750 5750 5750 5751 5750 5750 5750 5749 5747 5746 5745 5743 5741 5739 5737
5743 5743 5743 5743 5742 5741 5741 5740 5739 5738 5737 5736 5735 5734 5733 5732 5732 5732 5731 5731 5732 5733 5734 5734 5735 5736 5737 5738 5739 5739 5740 5740 5740 5739 5739 5738 5737 5736 5734 5732 5730 5728 5726